カタログに戻る

FENGYUN 1C DEB

運用中SSO
NORAD 31336·DEBRIS·🇨🇳 China

打ち上げ May 10, 1999 から Taiyuan Satellite Launch Center

Loading…

次のパス (今後24時間)

TLE

最新Source: Space-Track

元期: Sep 14, 2026, 15:13 UTC

1 31336U 99025BQQ 26257.63443226  .00000473  00000-0  15916-3 0  9992
2 31336  98.4295 313.6529 0092393  13.3930 139.2092 14.39175875 17441

AllMySatでFENGYUN 1C DEBをリアルタイム追跡

Download on the App Store